Météo Nord-Pas-de-Calais   La météo au plus près de chez vous

Station météorologique

Observations météo à Leran (09161)

09161003 391 m Dernier relevé à 14:06
30.7°C
Humidité 30 % Vent 6.1 km/h

Journée consultée

Samedi 5 Septembre 2026

Synthèse de la journée

Périodes de référence en UTC

Température maximale

31.2°C

à 14:00

06h 06h

Température minimale

14.9°C

à 08:00

18h 18h

Rafale maximale

18 km/h

à 10:06

00h 00h

Précipitations

0 mm

Cumul quotidien

06h 06h

Graphiques de la journée

Heure locale Réduire

Données détaillées

Relevés météo

Pas de 6 minutes Afficher les relevés infra-horaires
Relevés météo détaillés à Leran pour le Samedi 5 Septembre 2026
Heure Température °C Point de rosée °C Humidité % Vent moyen (raf.), km/h Précipitations mm
14:06 30.7 °C 11.1 °C 30 % 9 km/h (15 km/h) 0 mm0 mm
14:00 31.2 °C 11.6 °C 30 % 7 km/h (13 km/h) 0 mm0 mm
13:54 30.9 °C 11.8 °C 31 % 6 km/h (13 km/h) 0 mm0 mm
13:48 30.9 °C 10.8 °C 29 % 6 km/h (13 km/h) 0 mm0 mm
13:42 30.5 °C 11.9 °C 32 % 8 km/h (17 km/h) 0 mm0 mm
13:36 30.4 °C 10.9 °C 30 % 8 km/h (17 km/h) 0 mm0 mm
13:30 30.2 °C 10.7 °C 30 % 8 km/h (17 km/h) 0 mm0 mm
13:24 30.4 °C 10.9 °C 30 % 6 km/h (12 km/h) 0 mm0 mm
13:18 30.1 °C 11.1 °C 31 % 8 km/h (16 km/h) 0 mm0 mm
13:12 30 °C 11 °C 31 % 6 km/h (14 km/h) 0 mm0 mm
13:06 29.9 °C 10.4 °C 30 % 6 km/h (14 km/h) 0 mm0 mm
13:00 30.3 °C 11.3 °C 31 % 5 km/h (12 km/h) 0 mm0 mm
12:54 29.8 °C 11.3 °C 32 % 5 km/h (10 km/h) 0 mm0 mm
12:48 29.6 °C 10.7 °C 31 % 6 km/h (13 km/h) 0 mm0 mm
12:42 29.4 °C 10.5 °C 31 % 5 km/h (13 km/h) 0 mm0 mm
12:36 29.1 °C 10.7 °C 32 % 7 km/h (17 km/h) 0 mm0 mm
12:30 29 °C 11.5 °C 34 % 6 km/h (17 km/h) 0 mm0 mm
12:24 29 °C 11.1 °C 33 % 5 km/h (14 km/h) 0 mm0 mm
12:18 28.7 °C 11.3 °C 34 % 6 km/h (14 km/h) 0 mm0 mm
12:12 28.4 °C 11.9 °C 36 % 5 km/h (13 km/h) 0 mm0 mm
12:06 28.4 °C 12.3 °C 37 % 4 km/h (12 km/h) 0 mm0 mm
12:00 28.1 °C 12.4 °C 38 % 3 km/h (10 km/h) 0 mm0 mm
11:54 27.8 °C 12.6 °C 39 % 5 km/h (10 km/h) 0 mm0 mm
11:48 28 °C 13.5 °C 41 % 4 km/h (10 km/h) 0 mm0 mm
11:42 27.5 °C 13.4 °C 42 % 4 km/h (10 km/h) 0 mm0 mm
11:36 27.2 °C 13.5 °C 43 % 5 km/h (12 km/h) 0 mm0 mm
11:30 27.2 °C 13.5 °C 43 % 4 km/h (12 km/h) 0 mm0 mm
11:24 27.1 °C 14.1 °C 45 % 4 km/h (11 km/h) 0 mm0 mm
11:18 26.5 °C 13.9 °C 46 % 4 km/h (11 km/h) 0 mm0 mm
11:12 26.1 °C 14.2 °C 48 % 5 km/h (10 km/h) 0 mm0 mm
11:06 25.8 °C 14 °C 48 % 6 km/h (14 km/h) 0 mm0 mm
11:00 25.5 °C 14.3 °C 50 % 7 km/h (13 km/h) 0 mm0 mm
10:54 25.5 °C 14.3 °C 50 % 7 km/h (12 km/h) 0 mm0 mm
10:48 25.2 °C 14 °C 50 % 7 km/h (13 km/h) 0 mm0 mm
10:42 25 °C 14.2 °C 51 % 8 km/h (16 km/h) 0 mm0 mm
10:36 24.7 °C 13.9 °C 51 % 9 km/h (15 km/h) 0 mm0 mm
10:30 24.5 °C 14 °C 52 % 8 km/h (15 km/h) 0 mm0 mm
10:24 24.4 °C 14.2 °C 53 % 9 km/h (16 km/h) 0 mm0 mm
10:18 24 °C 14.1 °C 54 % 11 km/h (18 km/h) 0 mm0 mm
10:12 23.9 °C 14 °C 54 % 11 km/h (18 km/h) 0 mm0 mm
10:06 24.2 °C 14.3 °C 54 % 7 km/h (18 km/h) 0 mm0 mm
10:00 24 °C 14.1 °C 54 % 5 km/h (14 km/h) 0 mm0 mm
09:54 24.3 °C 14.7 °C 55 % 3 km/h (9 km/h) 0 mm0 mm
09:48 24.3 °C 14.7 °C 55 % 2 km/h (5 km/h) 0 mm0 mm
09:42 24 °C 15 °C 57 % 2 km/h (7 km/h) 0 mm0 mm
09:36 23.8 °C 15 °C 58 % 2 km/h (7 km/h) 0 mm0 mm
09:30 23.2 °C 15 °C 60 % 3 km/h (5 km/h) 0 mm0 mm
09:24 22.9 °C 15.2 °C 62 % 3 km/h (6 km/h) 0 mm0 mm
09:18 22.3 °C 14.9 °C 63 % 3 km/h (5 km/h) 0 mm0 mm
09:12 21.4 °C 14.5 °C 65 % 3 km/h (5 km/h) 0 mm0 mm
09:06 20.7 °C 14.3 °C 67 % 3 km/h (6 km/h) 0 mm0 mm
09:00 20.2 °C 14.3 °C 69 % 3 km/h (6 km/h) 0 mm0 mm
08:54 19.6 °C 14.6 °C 73 % 0 km/h (4 km/h) 0 mm0 mm
08:48 19 °C 15.1 °C 78 % 0 km/h (3 km/h) 0 mm0 mm
08:42 18.7 °C 15.2 °C 80 % 0 km/h (3 km/h) 0 mm0 mm
08:36 18.1 °C 14.6 °C 80 % 0 km/h (3 km/h) 0 mm0 mm
08:30 17.4 °C 14.3 °C 82 % 0 km/h (2 km/h) 0 mm0 mm
08:24 16.9 °C 14.2 °C 84 % 0 km/h (3 km/h) 0 mm0 mm
08:18 16.5 °C 14 °C 85 % 0 km/h (4 km/h) 0 mm0 mm
08:12 16.2 °C 13.9 °C 86 % 0 km/h (3 km/h) 0 mm0 mm
08:06 15.7 °C 13.7 °C 88 % 2 km/h (5 km/h) 0 mm0 mm
08:00 15.4 °C 13.6 °C 89 % 3 km/h (5 km/h) 0 mm0 mm
07:54 15.1 °C 13.3 °C 89 % 2 km/h (4 km/h) 0 mm0 mm
07:48 15.2 °C 13.7 °C 91 % 0 km/h (3 km/h) 0 mm0 mm
07:42 15.1 °C 13.6 °C 91 % 0 km/h (3 km/h) 0 mm0 mm
07:36 15.1 °C 13.8 °C 92 % 0 km/h (3 km/h) 0 mm0 mm
07:30 15 °C 13.4 °C 90 % 0 km/h (3 km/h) 0 mm0 mm
07:24 15 °C 13.2 °C 89 % 2 km/h (4 km/h) 0 mm0 mm
07:18 15.2 °C 13.6 °C 90 % 2 km/h (4 km/h) 0 mm0 mm
07:12 15.3 °C 13.5 °C 89 % 0 km/h (4 km/h) 0 mm0 mm
07:06 15.3 °C 13.3 °C 88 % 0 km/h (3 km/h) 0 mm0 mm
07:00 15.4 °C 13.6 °C 89 % 0 km/h (3 km/h) 0 mm0 mm
06:54 15.3 °C 13.1 °C 87 % 0 km/h (2 km/h) 0 mm0 mm
06:48 15.2 °C 12.9 °C 86 % 0 km/h (0 km/h) 0 mm0 mm
06:42 15.4 °C 13.2 °C 87 % 0 km/h (3 km/h) 0 mm0 mm
06:36 15.3 °C 13.1 °C 87 % 0 km/h (3 km/h) 0 mm0 mm
06:30 15.5 °C 13.5 °C 88 % 0 km/h (3 km/h) 0 mm0 mm
06:24 15.5 °C 13.5 °C 88 % 0 km/h (3 km/h) 0 mm0 mm
06:18 15.6 °C 13.3 °C 86 % 0 km/h (2 km/h) 0 mm0 mm
06:12 15.7 °C 13.4 °C 86 % 0 km/h (2 km/h) 0 mm0 mm
06:06 15.7 °C 13.2 °C 85 % 0 km/h (3 km/h) 0 mm0 mm
06:00 16.2 °C 14 °C 87 % 0 km/h (3 km/h) 0 mm0 mm
05:54 16.3 °C 13.8 °C 85 % 0 km/h (3 km/h) 0 mm0 mm
05:48 16.3 °C 13.2 °C 82 % 0 km/h (3 km/h) 0 mm0 mm
05:42 16.3 °C 12.8 °C 80 % 2 km/h (3 km/h) 0 mm0 mm
05:36 16.4 °C 13.1 °C 81 % 2 km/h (4 km/h) 0 mm0 mm
05:30 16.6 °C 13.3 °C 81 % 3 km/h (4 km/h) 0 mm0 mm
05:24 16.5 °C 13.4 °C 82 % 3 km/h (4 km/h) 0 mm0 mm
05:18 16.4 °C 13.1 °C 81 % 0 km/h (4 km/h) 0 mm0 mm
05:12 16.3 °C 12.8 °C 80 % 0 km/h (2 km/h) 0 mm0 mm
05:06 16.2 °C 12.9 °C 81 % 0 km/h (3 km/h) 0 mm0 mm
05:00 16.2 °C 12.9 °C 81 % 2 km/h (4 km/h) 0 mm0 mm
04:54 16.3 °C 12.8 °C 80 % 3 km/h (5 km/h) 0 mm0 mm
04:48 16.5 °C 13.2 °C 81 % 3 km/h (6 km/h) 0 mm0 mm
04:42 16.9 °C 13.8 °C 82 % 2 km/h (4 km/h) 0 mm0 mm
04:36 16.8 °C 13.3 °C 80 % 3 km/h (6 km/h) 0 mm0 mm
04:30 16.9 °C 13.6 °C 81 % 4 km/h (7 km/h) 0 mm0 mm
04:24 16.9 °C 13.4 °C 80 % 4 km/h (7 km/h) 0 mm0 mm
04:18 17 °C 13.3 °C 79 % 3 km/h (6 km/h) 0 mm0 mm
04:12 17.4 °C 13.7 °C 79 % 3 km/h (5 km/h) 0 mm0 mm
04:06 17.7 °C 14 °C 79 % 3 km/h (5 km/h) 0 mm0 mm
04:00 17.7 °C 13.4 °C 76 % 3 km/h (6 km/h) 0 mm0 mm
03:54 17.8 °C 14.1 °C 79 % 3 km/h (6 km/h) 0 mm0 mm
03:48 17.9 °C 13.8 °C 77 % 3 km/h (10 km/h) 0 mm0 mm
03:42 17.4 °C 13.5 °C 78 % 2 km/h (5 km/h) 0 mm0 mm
03:36 17.6 °C 13.9 °C 79 % 3 km/h (8 km/h) 0 mm0 mm
03:30 17.9 °C 14.2 °C 79 % 4 km/h (8 km/h) 0 mm0 mm
03:24 17.7 °C 14 °C 79 % 4 km/h (10 km/h) 0 mm0 mm
03:18 17.2 °C 12.7 °C 75 % 4 km/h (10 km/h) 0 mm0 mm
03:12 17.2 °C 13.3 °C 78 % 4 km/h (6 km/h) 0 mm0 mm
03:06 17.1 °C 13.2 °C 78 % 4 km/h (6 km/h) 0 mm0 mm
03:00 16.9 °C 12.8 °C 77 % 5 km/h (6 km/h) 0 mm0 mm
02:54 16.9 °C 12.4 °C 75 % 4 km/h (6 km/h) 0 mm0 mm
02:48 16.9 °C 12.6 °C 76 % 3 km/h (6 km/h) 0 mm0 mm
02:42 16.8 °C 12.7 °C 77 % 3 km/h (6 km/h) 0 mm0 mm
02:36 16.9 °C 13 °C 78 % 2 km/h (5 km/h) 0 mm0 mm
02:30 16.7 °C 12.4 °C 76 % 0 km/h (4 km/h) 0 mm0 mm
02:24 16.8 °C 12.5 °C 76 % 2 km/h (5 km/h) 0 mm0 mm
02:18 16.9 °C 13 °C 78 % 4 km/h (7 km/h) 0 mm0 mm
02:12 16.9 °C 12.2 °C 74 % 3 km/h (7 km/h) 0 mm0 mm
02:06 16.9 °C 12.6 °C 76 % 3 km/h (7 km/h) 0 mm0 mm
02:00 17 °C 12.9 °C 77 % 2 km/h (4 km/h) 0 mm0 mm
01:54 16.9 °C 12.6 °C 76 % 0 km/h (3 km/h) 0 mm0 mm
01:48 17 °C 12.7 °C 76 % 0 km/h (3 km/h) 0 mm0 mm
01:42 17.2 °C 13.3 °C 78 % 0 km/h (3 km/h) 0 mm0 mm
01:36 17 °C 11.9 °C 72 % 0 km/h (3 km/h) 0 mm0 mm
01:30 17.1 °C 11.6 °C 70 % 0 km/h (2 km/h) 0 mm0 mm
01:24 17.3 °C 12.2 °C 72 % 0 km/h (2 km/h) 0 mm0 mm
01:18 17.6 °C 12.7 °C 73 % 0 km/h (0 km/h) 0 mm0 mm
01:12 17.6 °C 11.4 °C 67 % 0 km/h (2 km/h) 0 mm0 mm
01:06 17.8 °C 11.6 °C 67 % 3 km/h (5 km/h) 0 mm0 mm
01:00 17.9 °C 11.5 °C 66 % 4 km/h (5 km/h) 0 mm0 mm
00:54 17.9 °C 11.7 °C 67 % 3 km/h (5 km/h) 0 mm0 mm
00:48 17.8 °C 11.8 °C 68 % 2 km/h (4 km/h) 0 mm0 mm
00:42 17.9 °C 12.8 °C 72 % 0 km/h (3 km/h) 0 mm0 mm
00:36 18 °C 12.9 °C 72 % 0 km/h (2 km/h) 0 mm0 mm
00:30 18.2 °C 13.1 °C 72 % 0 km/h (2 km/h) 0 mm0 mm
00:24 18.3 °C 12.3 °C 68 % 2 km/h (3 km/h) 0 mm0 mm
00:18 18.4 °C 12.4 °C 68 % 0 km/h (3 km/h) 0 mm0 mm
00:12 18.7 °C 13.8 °C 73 % 0 km/h (0 km/h) 0 mm0 mm
00:06 18.7 °C 13.1 °C 70 % 0 km/h (0 km/h) 0 mm0 mm
00:00 18.7 °C 12.2 °C 66 % 0 km/h (0 km/h) 0 mm0 mm

Données via Météo-France

Relevés météo à Leran

Cette page rassemble les observations de la station de Leran : température, humidité, vent, précipitations et pression atmosphérique. Les graphiques facilitent le suivi de la journée, tandis que le tableau donne accès aux mesures horaires et infra-horaires disponibles.

Pour replacer ces mesures dans leur contexte, consultez la climatologie de Leran ainsi que ses normales et records. Retrouvez aussi la carte des observations météo en temps réel.